Sarasota, FL

1:22 PM EDT on September 26, 2017 (GMT -0400)
Sarasota-bradenton

Weather History for KSRQ - January, 2014

Change the Weather History Date:

Tuesday, January 28, 2014

  Actual Average Record
Temperature  
Mean Temperature 65 °F 62 °F  
Max Temperature 76 °F 71 °F 84 °F (1974)
Min Temperature 53 °F 52 °F 26 °F (1986)
Degree Days  
Heating Degree Days 0 5  
Month to date heating degree days 185 149  
Since 1 July heating degree days 227 304  
Cooling Degree Days 0 2  
Month to date cooling degree days 31 56  
Year to date cooling degree days 31 56  
Growing Degree Days 14 (Base 50)    
Moisture  
Dew Point 58 °F    
Average Humidity 91    
Maximum Humidity 100    
Minimum Humidity 64    
Precipitation  
Precipitation 0.00 in 0.06 in 1.64 in (1925)
Month to date precipitation 0.98 2.33  
Year to date precipitation 0.98 2.33  
Sea Level Pressure  
Sea Level Pressure 30.01 in    
Wind  
Wind Speed 5 mph (South)    
Max Wind Speed 14 mph    
Max Gust Speed 19 mph    
Visibility 5 miles    
Events Fog    
T = Trace of Precipitation, MM = Missing Value Source: NWS Daily Summary

Daily Weather History Graph

Daily Weather History Graph

Search for Another Location

Airport or City:

Trip Planner

Search our weather history database for the weather conditions in past years. The results will help you decide how hot, cold, wet, or windy it might be!

Date:

Astronomy

Jan. 28, 2014 Rise Set
Actual Time 7:18 AM EST 6:08 PM EST
Civil Twilight 6:53 AM EST 6:32 PM EST
Nautical Twilight 6:25 AM EST 7:01 PM EST
Astronomical Twilight 5:57 AM EST 7:28 PM EST
Moon 4:55 AM EST (1/28) 3:59 PM EST (1/28)
Length of Visible Light 11h 39m
Length of Day
10h 50m
Waning Crescent, 7% of the Moon is Illuminated
Jan 28
Waning Crescent
Jan 30
New
Feb 6
First Quarter
Feb 14
Full
Feb 22
Last Quarter

Hourly Weather History & Observations

Time (EST) Temp. Dew Point Humidity Pressure Visibility Wind Dir Wind Speed Gust Speed Precip Events Conditions
12:08 AM 60.1 °F 59.0 °F 96% 30.02 in 8.0 mi North 3.5 mph - N/A   Clear
12:19 AM 59.0 °F 57.9 °F 96% 30.02 in 1.8 mi Calm Calm - N/A   Clear
12:24 AM 57.9 °F 57.9 °F 100% 30.02 in 0.8 mi Calm Calm - N/A   Mist
12:32 AM 59.0 °F 57.9 °F 96% 30.01 in 1.2 mi Calm Calm - N/A   Partly Cloudy
12:35 AM 59.0 °F 57.9 °F 96% 30.01 in 3.0 mi Calm Calm - N/A   Clear
12:37 AM 59.0 °F 57.0 °F 93% 30.01 in 1.8 mi Calm Calm - N/A   Clear
12:42 AM 57.9 °F 57.0 °F 97% 30.01 in 0.8 mi Calm Calm - N/A   Mist
12:53 AM 57.9 °F 57.0 °F 97% 30.01 in 0.2 mi Calm Calm - N/A Fog Fog
1:53 AM 57.0 °F 55.9 °F 96% 30.00 in 1.0 mi Calm Calm - N/A   Mist
2:08 AM 57.0 °F 55.9 °F 96% 30.00 in 0.8 mi Calm Calm - N/A   Mist
2:16 AM 55.9 °F 55.9 °F 100% 30.00 in 2.0 mi Calm Calm - N/A   Mostly Cloudy
2:25 AM 55.9 °F 55.0 °F 97% 29.99 in 0.8 mi Calm Calm - N/A   Mist
2:53 AM 55.9 °F 55.0 °F 97% 29.98 in 0.2 mi Calm Calm - N/A Fog Fog
3:53 AM 55.9 °F 55.0 °F 97% 29.99 in 0.2 mi Calm Calm - N/A Fog Fog
4:17 AM 55.0 °F 54.0 °F 96% 29.99 in 2.0 mi Calm Calm - N/A   Overcast
4:25 AM 55.0 °F 54.0 °F 96% 29.99 in 7.0 mi Calm Calm - N/A   Overcast
4:42 AM 55.0 °F 54.0 °F 96% 29.99 in 1.8 mi Calm Calm - N/A   Overcast
4:53 AM 55.0 °F 54.0 °F 96% 29.99 in 1.8 mi Calm Calm - N/A   Overcast
4:57 AM 55.0 °F 54.0 °F 96% 29.99 in 3.0 mi Calm Calm - N/A   Overcast
5:09 AM 55.0 °F 54.0 °F 96% 29.99 in 1.5 mi Calm Calm - N/A   Overcast
5:32 AM 54.0 °F 54.0 °F 100% 30.00 in 3.0 mi SE 3.5 mph - N/A   Overcast
5:53 AM 55.0 °F 54.0 °F 96% 30.00 in 1.8 mi SSE 4.6 mph - N/A   Mostly Cloudy
6:00 AM 54.0 °F 53.1 °F 97% 30.00 in 10.0 mi SE 4.6 mph - N/A   Mostly Cloudy
6:34 AM 55.9 °F 54.0 °F 93% 30.02 in 0.5 mi SSE 4.6 mph - N/A Fog Fog
6:53 AM 55.9 °F 55.0 °F 97% 30.02 in 0.5 mi SE 4.6 mph - N/A Fog Fog
7:18 AM 57.0 °F 55.9 °F 96% 30.02 in 0.5 mi SSE 3.5 mph - N/A Fog Fog
7:26 AM 57.9 °F 57.0 °F 97% 30.03 in 3.0 mi ESE 3.5 mph - N/A   Clear
7:53 AM 57.9 °F 57.9 °F 100% 30.03 in 5.0 mi Calm Calm - N/A   Clear
8:53 AM 64.9 °F 64.0 °F 97% 30.04 in 10.0 mi Calm Calm - N/A   Clear
9:53 AM 72.0 °F 64.0 °F 76% 30.05 in 10.0 mi South 8.1 mph - N/A   Clear
10:53 AM 75.0 °F 63.0 °F 66% 30.06 in 10.0 mi South 8.1 mph - N/A   Clear
11:53 AM 75.0 °F 62.1 °F 64% 30.06 in 10.0 mi SW 11.5 mph - N/A   Partly Cloudy
12:53 PM 73.9 °F 63.0 °F 68% 30.03 in 10.0 mi SSW 12.7 mph - N/A   Clear
1:53 PM 75.0 °F 63.0 °F 66% 29.98 in 10.0 mi South 12.7 mph - N/A   Clear
2:53 PM 73.9 °F 63.0 °F 68% 29.98 in 10.0 mi SSW 9.2 mph - N/A   Clear
3:53 PM 73.0 °F 63.0 °F 71% 29.97 in 10.0 mi SSW 10.4 mph - N/A   Clear
4:53 PM 69.1 °F 62.1 °F 78% 29.98 in 10.0 mi SW 6.9 mph - N/A   Clear
5:53 PM 66.9 °F 62.1 °F 84% 29.99 in 10.0 mi SSW 6.9 mph - N/A   Clear
6:53 PM 66.9 °F 62.1 °F 84% 29.99 in 10.0 mi SSW 4.6 mph - N/A   Clear
7:53 PM 66.9 °F 63.0 °F 87% 30.01 in 10.0 mi South 8.1 mph - N/A   Clear
8:53 PM 64.9 °F 62.1 °F 90% 30.01 in 10.0 mi SW 3.5 mph - N/A   Clear
9:53 PM 62.1 °F 60.1 °F 93% 30.02 in 10.0 mi WNW 3.5 mph - N/A   Clear
10:53 PM 63.0 °F 61.0 °F 93% 30.02 in 10.0 mi Calm Calm - N/A   Clear
11:30 PM 63.0 °F 61.0 °F 93% 30.01 in 10.0 mi South 4.6 mph - N/A   Partly Cloudy
11:53 PM 63.0 °F 61.0 °F 93% 30.00 in 10.0 mi SSW 3.5 mph - N/A   Partly Cloudy